FW1908 Weather Reports


Display with metric or nautical units.
time (UTC)temp
F
wind
direction
speed
MPH
gust
MPH
rain 1hr
in
rain 24hr
in
rain mn
in
humidity
%
barometer
mb
20260902040107 79 50 0.0 0.0 0.00 0.00 0.00 85 1018.4
20260902035348 79 50 0.0 0.0 0.00 0.00 0.00 85 1018.4
20260902034847 79 50 0.0 0.0 0.00 0.00 0.00 85 1018.3
20260902034341 80 50 0.0 0.0 0.00 0.00 0.00 84 1018.3
20260902033835 80 50 0.0 0.0 0.00 0.00 0.00 84 1018.3
20260902033329 80 50 0.0 0.0 0.00 0.00 0.00 84 1018.3
20260902033044 80 50 0.0 0.0 0.00 0.00 0.00 84 1018.3
20260902032317 80 50 0.0 0.0 0.00 0.00 0.00 84 1018.3
20260902031814 80 50 0.0 0.0 0.00 0.00 0.00 83 1018.3
20260902031305 80 50 0.0 1.0 0.00 0.00 0.00 83 1018.3
20260902030800 80 50 0.0 1.0 0.00 0.00 0.00 83 1018.3
20260902030510 80 49 0.0 0.0 0.00 0.00 0.00 83 1018.3
20260902025747 81 49 0.0 0.0 0.00 0.00 0.00 82 1018.3
20260902025507 81 49 0.0 0.0 0.00 0.00 0.00 82 1018.3
20260902024735 81 49 0.0 0.0 0.00 0.00 0.00 81 1018.2
20260902024229 81 49 0.0 0.0 0.00 0.00 0.00 81 1018.2
20260902023722 81 49 0.0 0.0 0.00 0.00 0.00 81 1018.1
20260902023440 81 49 0.0 0.0 0.00 0.00 0.00 81 1018.1
20260902022711 82 49 0.0 0.0 0.00 0.00 0.00 80 1018.1
20260902022205 82 49 0.0 1.0 0.00 0.00 0.00 80 1018.1
20260902021659 82 49 0.0 1.0 0.00 0.00 0.00 79 1018.2
20260902021153 82 49 0.0 1.0 0.00 0.00 0.00 79 1018.1
20260902020646 82 49 0.0 0.0 0.00 0.00 0.00 79 1018.0
20260902020141 83 49 0.0 0.0 0.00 0.00 0.00 78 1018.1
20260902015634 83 49 0.0 0.0 0.00 0.00 0.00 78 1018.1
20260902015129 83 49 0.0 0.0 0.00 0.00 0.00 78 1018.0
20260902014622 83 49 0.0 0.0 0.00 0.00 0.00 77 1018.0
20260902014116 83 49 0.0 0.0 0.00 0.00 0.00 76 1018.0
20260902013611 83 49 0.0 0.0 0.00 0.00 0.00 76 1018.0
20260902013104 84 49 0.0 0.0 0.00 0.00 0.00 75 1018.0
20260902012559 84 49 0.0 0.0 0.00 0.00 0.00 75 1017.9
20260902012052 84 49 0.0 0.0 0.00 0.00 0.00 74 1017.9
20260902011547 84 49 0.0 0.0 0.00 0.00 0.00 74 1017.8
20260902011040 84 49 0.0 0.0 0.00 0.00 0.00 72 1017.8
20260902010759 85 49 0.0 0.0 0.00 0.00 0.00 72 1017.8
20260902010028 85 49 0.0 0.0 0.00 0.00 0.00 72 1017.6
20260902005523 85 49 0.0 0.0 0.00 0.00 0.00 70 1017.7
20260902005017 85 49 0.0 0.0 0.00 0.00 0.00 70 1017.6
20260902004511 85 49 0.0 0.0 0.00 0.00 0.00 69 1017.6
20260902004004 86 49 0.0 0.0 0.00 0.00 0.00 69 1017.6
20260902003459 86 49 0.0 0.0 0.00 0.00 0.00 68 1017.6
20260902002953 86 49 0.0 0.0 0.00 0.00 0.00 67 1017.6
20260902002447 87 49 0.0 0.0 0.00 0.00 0.00 67 1017.6
20260902001940 87 49 0.0 0.0 0.00 0.00 0.00 67 1017.5
20260902001435 87 49 0.0 0.0 0.00 0.00 0.00 66 1017.5
20260902000928 88 49 0.0 0.0 0.00 0.00 0.00 66 1017.4
20260902000423 88 49 0.0 0.0 0.00 0.00 0.00 65 1017.5
20260901235917 88 49 0.0 0.0 0.00 0.00 0.00 64 1017.5
20260901235411 89 49 0.0 0.0 0.00 0.00 0.00 63 1017.5
20260901235127 89 49 0.0 0.0 0.00 0.00 0.00 62 1017.5
20260901234400 89 49 0.0 0.0 0.00 0.00 0.00 61 1017.5
20260901233853 90 49 0.0 0.0 0.00 0.00 0.00 60 1017.5
20260901233346 90 49 0.0 0.0 0.00 0.00 0.00 58 1017.5
20260901232841 91 49 0.0 0.0 0.00 0.00 0.00 59 1017.5
20260901232336 91 49 0.0 0.0 0.00 0.00 0.00 57 1017.5
20260901231829 91 49 0.0 0.0 0.00 0.00 0.00 57 1017.5
20260901231322 91 49 0.0 0.0 0.00 0.00 0.00 56 1017.5
20260901230817 92 49 0.0 0.0 0.00 0.00 0.00 55 1017.6
20260901230310 92 49 0.0 0.0 0.00 0.00 0.00 55 1017.7
20260901225805 92 49 0.0 1.0 0.00 0.00 0.00 56 1017.6
20260901225259 92 49 0.0 2.0 0.00 0.00 0.00 55 1017.6
20260901224754 92 76 0.0 2.0 0.00 0.00 0.00 55 1017.6
20260901224247 92 71 0.0 1.0 0.00 0.00 0.00 54 1017.7
20260901223741 92 70 0.0 1.0 0.00 0.00 0.00 54 1017.6
20260901223234 92 84 0.0 1.0 0.00 0.00 0.00 53 1017.6
20260901222729 92 81 0.0 0.0 0.00 0.00 0.00 53 1017.7
20260901222223 92 81 0.0 0.0 0.00 0.00 0.00 52 1017.7
20260901221716 92 81 0.0 1.0 0.00 0.00 0.00 51 1017.6
20260901221210 92 81 0.0 3.0 0.00 0.00 0.00 54 1017.6
20260901220705 92 79 1.0 3.0 0.00 0.00 0.00 54 1017.6
20260901220158 92 61 0.0 3.0 0.00 0.00 0.00 54 1017.6
20260901215654 93 61 0.0 1.0 0.00 0.00 0.00 55 1017.6
20260901215414 93 61 0.0 2.0 0.00 0.00 0.00 52 1017.5
20260901214651 93 61 0.0 2.0 0.00 0.00 0.00 51 1017.5
20260901214409 93 301 0.0 0.0 0.00 0.00 0.00 53 1017.5
20260901213652 94 301 0.0 0.0 0.00 0.00 0.00 51 1017.5
20260901213151 94 301 0.0 1.0 0.00 0.00 0.00 50 1017.5
20260901212651 94 301 0.0 2.0 0.00 0.00 0.00 50 1017.5
20260901212149 94 301 0.0 2.0 0.00 0.00 0.00 50 1017.5
20260901211649 94 300 0.0 2.0 0.00 0.00 0.00 48 1017.5
20260901211150 94 299 0.0 2.0 0.00 0.00 0.00 47 1017.5
20260901210647 95 281 0.0 1.0 0.00 0.00 0.00 52 1017.4
20260901210147 95 281 0.0 0.0 0.00 0.00 0.00 50 1017.5
20260901205647 95 281 0.0 1.0 0.00 0.00 0.00 49 1017.5
20260901205145 96 281 0.0 3.0 0.00 0.00 0.00 47 1017.6
20260901204643 96 277 0.0 3.0 0.00 0.00 0.00 47 1017.7
20260901204140 96 274 0.0 3.0 0.00 0.00 0.00 46 1017.7
20260901203641 97 329 1.0 3.0 0.00 0.00 0.00 46 1017.7
20260901203403 97 252 1.0 3.0 0.00 0.00 0.00 48 1017.8
20260901202637 97 275 2.0 4.0 0.00 0.00 0.00 46 1017.8
20260901201638 97 257 1.0 6.0 0.00 0.00 0.00 48 1017.7
20260901201139 97 259 1.0 6.0 0.00 0.00 0.00 48 1017.8
20260901200636 97 320 1.0 4.0 0.00 0.00 0.00 47 1017.7
20260901200136 97 319 0.0 4.0 0.00 0.00 0.00 45 1017.8
20260901195636 97 355 1.0 4.0 0.00 0.00 0.00 44 1017.9
20260901195137 97 114 1.0 4.0 0.00 0.00 0.00 48 1018.0
20260901194637 96 107 1.0 4.0 0.00 0.00 0.00 49 1018.0
20260901194137 96 54 1.0 4.0 0.00 0.00 0.00 45 1018.1
20260901193636 96 119 0.0 4.0 0.00 0.00 0.00 52 1018.2
20260901193136 96 13 0.0 2.0 0.00 0.00 0.00 47 1018.3
20260901192636 97 13 0.0 2.0 0.00 0.00 0.00 45 1018.3
20260901192137 97 293 0.0 4.0 0.00 0.00 0.00 44 1018.4
20260901191137 97 317 2.0 5.0 0.00 0.00 0.00 46 1018.4
20260901190636 97 238 1.0 5.0 0.00 0.00 0.00 45 1018.4
20260901190136 97 242 1.0 5.0 0.00 0.00 0.00 48 1018.5
20260901185900 96 339 1.0 5.0 0.00 0.00 0.00 48 1018.6
20260901185137 96 36 1.0 4.0 0.00 0.00 0.00 45 1018.6
20260901184637 96 0 2.0 6.0 0.00 0.00 0.00 46 1018.7
20260901184138 96 345 2.0 6.0 0.00 0.00 0.00 46 1018.7
20260901183637 96 269 1.0 5.0 0.00 0.00 0.00 47 1018.6
20260901183139 96 331 1.0 6.0 0.00 0.00 0.00 50 1018.6
20260901182633 96 311 1.0 6.0 0.00 0.00 0.00 50 1018.6
20260901182132 96 333 1.0 5.0 0.00 0.00 0.00 47 1018.7
20260901181633 96 30 0.0 3.0 0.00 0.00 0.00 47 1018.7
20260901181132 96 78 1.0 4.0 0.00 0.00 0.00 47 1018.8
20260901180633 96 329 1.0 5.0 0.00 0.00 0.00 46 1018.9
20260901180133 96 286 2.0 8.0 0.00 0.00 0.00 47 1018.8
20260901175633 96 333 1.0 8.0 0.00 0.00 0.00 48 1018.9
20260901175132 95 321 1.0 4.0 0.00 0.00 0.00 48 1018.9
20260901174857 95 227 1.0 4.0 0.00 0.00 0.00 53 1019.0
20260901174129 95 335 1.0 5.0 0.00 0.00 0.00 49 1019.1
20260901173847 95 335 1.0 5.0 0.00 0.00 0.00 47 1019.2
20260901173128 95 19 1.0 4.0 0.00 0.00 0.00 50 1019.2
20260901172628 95 330 0.0 4.0 0.00 0.00 0.00 52 1019.4
20260901172128 95 269 1.0 4.0 0.00 0.00 0.00 51 1019.4
20260901171630 95 24 1.0 4.0 0.00 0.00 0.00 55 1019.5
20260901171130 95 236 1.0 5.0 0.00 0.00 0.00 55 1019.5
20260901170629 94 234 1.0 5.0 0.00 0.00 0.00 52 1019.5
20260901170130 94 317 1.0 5.0 0.00 0.00 0.00 52 1019.6
20260901165626 94 241 1.0 4.0 0.00 0.00 0.00 55 1019.6
20260901165126 94 315 2.0 5.0 0.00 0.00 0.00 54 1019.7
20260901164625 94 344 2.0 5.0 0.00 0.00 0.00 56 1019.8
20260901164123 93 242 1.0 4.0 0.00 0.00 0.00 56 1019.8
20260901163623 93 309 1.0 4.0 0.00 0.00 0.00 55 1019.9
20260901163123 93 309 1.0 4.0 0.00 0.00 0.00 56 1020.0
20260901162623 93 304 1.0 4.0 0.00 0.00 0.00 59 1020.0
20260901162348 92 292 1.0 4.0 0.00 0.00 0.00 57 1020.0
20260901161621 92 261 2.0 4.0 0.00 0.00 0.00 58 1020.0
20260901161119 92 288 2.0 5.0 0.00 0.00 0.00 60 1020.1
20260901160619 92 279 2.0 5.0 0.00 0.00 0.00 60 1020.2
20260901160117 91 288 2.0 5.0 0.00 0.00 0.00 61 1020.2
20260901155614 91 303 1.0 4.0 0.00 0.00 0.00 60 1020.2
20260901155112 91 336 1.0 4.0 0.00 0.00 0.00 60 1020.2
20260901154612 91 327 1.0 5.0 0.00 0.00 0.00 61 1020.3
20260901154105 91 327 1.0 5.0 0.00 0.00 0.00 61 1020.4
20260901153559 90 277 1.0 7.0 0.00 0.00 0.00 64 1020.3
20260901153053 90 248 2.0 7.0 0.00 0.00 0.00 64 1020.4
20260901152547 89 252 1.0 4.0 0.00 0.00 0.00 65 1020.4
20260901152042 89 119 0.0 2.0 0.00 0.00 0.00 66 1020.4
20260901151535 88 315 1.0 2.0 0.00 0.00 0.00 65 1020.5
20260901151030 88 300 1.0 7.0 0.00 0.00 0.00 66 1020.6
20260901150523 87 320 2.0 7.0 0.00 0.00 0.00 69 1020.6
20260901150017 87 250 1.0 6.0 0.00 0.00 0.00 71 1020.6
20260901145511 86 251 0.0 3.0 0.00 0.00 0.00 73 1020.7
20260901145005 85 292 0.0 3.0 0.00 0.00 0.00 74 1020.6
20260901144458 85 265 0.0 3.0 0.00 0.00 0.00 77 1020.6
20260901144211 84 337 0.0 3.0 0.00 0.00 0.00 77 1020.6
20260901143452 83 319 1.0 4.0 0.00 0.00 0.00 79 1020.7
20260901142938 82 345 1.0 4.0 0.00 0.00 0.00 82 1020.6
20260901142431 81 320 1.0 4.0 0.00 0.00 0.00 86 1020.6
20260901141925 80 316 1.0 3.0 0.00 0.00 0.00 90 1020.6
20260901141419 80 314 1.0 3.0 0.00 0.00 0.00 92 1020.6
20260901141137 79 264 0.0 3.0 0.00 0.00 0.00 94 1020.5
20260901140408 79 308 0.0 3.0 0.00 0.00 0.00 94 1020.4
20260901135900 78 274 0.0 0.0 0.00 0.00 0.00 95 1020.4
20260901135353 78 304 0.0 0.0 0.00 0.00 0.00 95 1020.4
20260901134847 78 304 0.0 0.0 0.00 0.00 0.00 95 1020.4
20260901134341 77 294 0.0 0.0 0.00 0.00 0.00 95 1020.4
20260901133835 77 309 0.0 0.0 0.00 0.00 0.00 95 1020.4
20260901133331 76 155 0.0 0.0 0.00 0.00 0.00 95 1020.4
20260901132831 76 149 0.0 0.0 0.00 0.00 0.00 95 1020.3
20260901132330 76 146 0.0 0.0 0.00 0.00 0.00 95 1020.3
20260901132050 76 109 0.0 0.0 0.00 0.00 0.00 95 1020.3
20260901131553 75 109 0.0 0.0 0.00 0.00 0.00 95 1020.3
20260901130828 75 109 0.0 0.0 0.00 0.00 0.00 95 1020.3
20260901130552 75 109 0.0 0.0 0.00 0.00 0.00 95 1020.3
20260901125826 75 105 0.0 0.0 0.00 0.00 0.00 95 1020.4
20260901125326 74 105 0.0 0.0 0.00 0.00 0.00 95 1020.4
20260901124824 74 104 0.0 0.0 0.00 0.00 0.00 95 1020.4
20260901124322 73 104 0.0 0.0 0.00 0.00 0.00 95 1020.5
20260901123820 73 104 0.0 0.0 0.00 0.00 0.00 95 1020.5
20260901123320 73 104 0.0 0.0 0.00 0.00 0.00 95 1020.4
20260901122816 73 104 0.0 0.0 0.00 0.00 0.00 95 1020.4
20260901122314 73 104 0.0 0.0 0.00 0.00 0.00 95 1020.3
20260901121814 73 104 0.0 0.0 0.00 0.00 0.00 95 1020.3
20260901121532 72 104 0.0 0.0 0.00 0.00 0.00 95 1020.2
20260901121039 72 104 0.0 0.0 0.00 0.00 0.00 95 1020.2
20260901120530 71 104 0.0 0.0 0.00 0.00 0.00 94 1020.2
20260901115808 71 104 0.0 0.0 0.00 0.00 0.00 94 1020.2
20260901115538 71 104 0.0 0.0 0.00 0.00 0.00 94 1020.1
20260901114801 71 104 0.0 0.0 0.00 0.00 0.00 94 1020.1
20260901114254 71 104 0.0 0.0 0.00 0.00 0.00 94 1020.0
20260901114008 71 104 0.0 0.0 0.00 0.00 0.00 94 1019.9
20260901113242 71 104 0.0 0.0 0.00 0.00 0.00 94 1019.8
20260901112735 71 104 0.0 0.0 0.00 0.00 0.00 94 1019.7
20260901112231 71 104 0.0 0.0 0.00 0.00 0.00 94 1019.7
20260901111724 71 104 0.0 0.0 0.00 0.00 0.00 94 1019.7
20260901111219 71 104 0.0 0.0 0.00 0.00 0.00 94 1019.7
20260901110712 71 104 0.0 0.0 0.00 0.00 0.00 94 1019.6
20260901110431 71 104 0.0 0.0 0.00 0.00 0.00 94 1019.4
20260901105700 71 104 0.0 0.0 0.00 0.00 0.00 94 1019.4
20260901105153 71 104 0.0 0.0 0.00 0.00 0.00 93 1019.4
20260901104648 71 104 0.0 0.0 0.00 0.00 0.00 93 1019.4
20260901104405 71 104 0.0 0.0 0.00 0.00 0.00 93 1019.4
20260901103636 71 104 0.0 0.0 0.00 0.00 0.00 93 1019.2
20260901103130 71 104 0.0 0.0 0.00 0.00 0.00 93 1019.1
20260901102623 71 104 0.0 0.0 0.00 0.00 0.00 94 1019.1
20260901102117 72 104 0.0 0.0 0.00 0.00 0.00 93 1019.1
20260901101612 72 104 0.0 0.0 0.00 0.00 0.00 93 1019.1
20260901101105 72 104 0.0 0.0 0.00 0.00 0.00 93 1019.1
20260901100559 72 104 0.0 0.0 0.00 0.00 0.00 93 1019.1
20260901100054 72 104 0.0 0.0 0.00 0.00 0.00 93 1019.0
20260901095548 72 104 0.0 0.0 0.00 0.00 0.00 93 1019.0
20260901095048 72 104 0.0 0.0 0.00 0.00 0.00 93 1019.1
20260901094546 72 104 0.0 0.0 0.00 0.00 0.00 93 1019.1
20260901094315 72 104 0.0 0.0 0.00 0.00 0.00 93 1019.1
20260901093542 72 104 0.0 0.0 0.00 0.00 0.00 93 1019.1
20260901093039 72 104 0.0 0.0 0.00 0.00 0.00 93 1019.2
20260901092804 72 104 0.0 0.0 0.00 0.00 0.00 93 1019.2
20260901092040 72 104 0.0 0.0 0.00 0.00 0.00 93 1019.2
20260901091538 72 104 0.0 0.0 0.00 0.00 0.00 93 1019.4
20260901091036 72 104 0.0 0.0 0.00 0.00 0.00 93 1019.2
20260901090756 72 104 0.0 0.0 0.00 0.00 0.00 93 1019.2
20260901090257 73 104 0.0 0.0 0.00 0.00 0.00 93 1019.2
20260901085536 73 104 0.0 0.0 0.00 0.00 0.00 93 1019.2
20260901085033 73 104 0.0 0.0 0.00 0.00 0.00 93 1019.1
20260901084535 73 104 0.0 0.0 0.00 0.00 0.00 93 1019.2
20260901084303 73 104 0.0 0.0 0.00 0.00 0.00 93 1019.2
20260901083534 73 104 0.0 0.0 0.00 0.00 0.00 93 1019.4
20260901083033 74 104 0.0 0.0 0.00 0.00 0.00 93 1019.4
20260901082533 74 104 0.0 0.0 0.00 0.00 0.00 93 1019.4
20260901082032 74 104 0.0 0.0 0.00 0.00 0.00 93 1019.4
20260901081529 74 104 0.0 0.0 0.00 0.00 0.00 93 1019.4
20260901081029 74 104 0.0 0.0 0.00 0.00 0.00 93 1019.5
20260901080528 74 104 0.0 0.0 0.00 0.00 0.00 93 1019.5
20260901080028 74 104 0.0 0.0 0.00 0.00 0.00 92 1019.5
20260901075526 74 104 0.0 0.0 0.00 0.00 0.00 92 1019.5
20260901075025 74 104 0.0 0.0 0.00 0.00 0.00 91 1019.5
20260901074524 74 104 0.0 0.0 0.00 0.00 0.00 91 1019.5
20260901074022 74 104 0.0 0.0 0.00 0.00 0.00 91 1019.5
20260901073520 74 104 0.0 0.0 0.00 0.00 0.00 91 1019.5
20260901073020 74 104 0.0 0.0 0.00 0.00 0.00 91 1019.5
20260901072520 74 104 0.0 0.0 0.00 0.00 0.00 91 1019.5
20260901072018 74 104 0.0 0.0 0.00 0.00 0.00 90 1019.6
20260901071518 74 104 0.0 0.0 0.00 0.00 0.00 90 1019.7
20260901071016 74 104 0.0 0.0 0.00 0.00 0.00 91 1019.7
20260901070515 74 104 0.0 0.0 0.00 0.00 0.00 90 1019.6
20260901070016 74 104 0.0 0.0 0.00 0.00 0.00 90 1019.8
20260901065515 74 104 0.0 0.0 0.00 0.00 0.00 90 1019.7
20260901065016 74 104 0.0 0.0 0.00 0.00 0.00 90 1019.7
20260901064516 74 104 0.0 0.0 0.00 0.00 0.00 90 1019.8
20260901064016 74 104 0.0 0.0 0.00 0.00 0.00 90 1019.8
20260901063516 75 104 0.0 0.0 0.00 0.00 0.00 90 1019.8
20260901063016 75 104 0.0 0.0 0.00 0.00 0.00 90 1019.8
20260901062512 75 104 0.0 0.0 0.00 0.00 0.00 90 1019.8
20260901062011 75 104 0.0 0.0 0.00 0.00 0.00 90 1019.8
20260901061512 75 104 0.0 0.0 0.00 0.00 0.00 90 1019.8
20260901061011 75 104 0.0 0.0 0.00 0.00 0.00 90 1019.9
20260901060512 75 104 0.0 0.0 0.00 0.00 0.00 89 1019.9
20260901060012 75 104 0.0 0.0 0.00 0.00 0.00 89 1019.9
20260901055511 75 104 0.0 0.0 0.00 0.00 0.00 89 1019.8
20260901055012 75 104 0.0 0.0 0.00 0.00 0.00 89 1019.9
20260901054511 75 104 0.0 0.0 0.00 0.00 0.00 89 1019.9
20260901054012 75 104 0.0 0.0 0.00 0.00 0.00 89 1019.9
20260901053511 76 104 0.0 0.0 0.00 0.00 0.00 89 1020.0
20260901053011 76 104 0.0 0.0 0.00 0.00 0.00 89 1020.0
20260901052511 76 104 0.0 0.0 0.00 0.00 0.00 89 1020.0
20260901052231 76 104 0.0 0.0 0.00 0.00 0.00 89 1020.0
20260901051730 76 104 0.0 0.0 0.00 0.00 0.00 89 1020.0
20260901051229 76 104 0.0 0.0 0.00 0.00 0.00 88 1020.0
20260901050512 76 104 0.0 0.0 0.00 0.00 0.00 88 1020.0
20260901050231 76 104 0.0 0.0 0.00 0.00 0.00 88 1020.0
20260901045733 76 104 0.0 0.0 0.00 0.00 0.00 88 1020.0
20260901045011 76 104 0.0 0.0 0.00 0.00 0.00 88 1020.0
20260901044511 76 104 0.0 0.0 0.00 0.00 0.00 88 1020.0
20260901044011 76 104 0.0 0.0 0.00 0.00 0.00 88 1020.0
20260901043511 76 104 0.0 0.0 0.00 0.00 0.00 88 1020.0
20260901043011 77 104 0.0 0.0 0.00 0.00 0.00 87 1019.9
20260901042509 77 104 0.0 0.0 0.00 0.00 0.00 87 1019.9
20260901042224 77 104 0.0 0.0 0.00 0.00 0.00 87 1019.9
20260901041507 77 104 0.0 0.0 0.00 0.00 0.00 87 1019.9
20260901041004 77 104 0.0 0.0 0.00 0.00 0.00 87 1019.8
20260901040503 77 104 0.0 0.0 0.00 0.00 0.00 86 1019.9